owner,sensor,date,latitude,longitude,vertical_datum,direction_of_sea_water_velocity,sea_water_speed,upward_sea_water_velocity,qcFlag 
TABS,ioos:station:wmo:42045:1,2009-01-01T00:00:00Z,26.2168,-96.4998,2.0,240.2848754,7.081143975,-99999.0,'11133222,11111222,99999999' 
TABS,ioos:station:wmo:42045:1,2009-01-01T00:30:00Z,26.2168,-96.4998,2.0,237.5737762,6.788409239,-99999.0,'11133222,11111222,99999999' 
TABS,ioos:station:wmo:42045:1,2009-01-01T01:00:00Z,26.2168,-96.4998,2.0,237.7496803,6.952589446,-99999.0,'11133222,11111222,99999999' 
TABS,ioos:station:wmo:42045:1,2009-01-01T01:30:00Z,26.2168,-96.4998,2.0,242.1451951,5.564746176,-99999.0,'11133222,11111222,99999999' 
TABS,ioos:station:wmo:42045:1,2009-01-01T02:00:00Z,26.2168,-96.4998,2.0,262.0648009,4.563693679,-99999.0,'11133222,11111222,99999999' 
TABS,ioos:station:wmo:42045:1,2009-01-01T02:30:00Z,26.2168,-96.4998,2.0,232.7121937,6.586174914,-99999.0,'11133222,11111222,99999999' 
TABS,ioos:station:wmo:42045:1,2009-01-01T03:00:00Z,26.2168,-96.4998,2.0,285.2878196,9.330144693,-99999.0,'11133222,11111222,99999999' 
TABS,ioos:station:wmo:42045:1,2009-01-01T03:30:00Z,26.2168,-96.4998,2.0,258.9761489,2.353423039,-99999.0,'11133222,11111222,99999999' 
TABS,ioos:station:wmo:42045:1,2009-01-01T04:00:00Z,26.2168,-96.4998,2.0,288.6733134,6.090599314,-99999.0,'11133222,11111222,99999999' 
TABS,ioos:station:wmo:42045:1,2009-01-01T04:30:00Z,26.2168,-96.4998,2.0,280.1882837,3.505267465,-99999.0,'11133222,11111222,99999999' 
TABS,ioos:station:wmo:42045:1,2009-01-01T05:00:00Z,26.2168,-96.4998,2.0,248.5033424,3.138295716,-99999.0,'11133222,11111222,99999999' 
TABS,ioos:station:wmo:42045:1,2009-01-01T05:30:00Z,26.2168,-96.4998,2.0,220.1861447,5.393032542,-99999.0,'11133222,11111222,99999999' 
TABS,ioos:station:wmo:42045:1,2009-01-01T06:00:00Z,26.2168,-96.4998,2.0,215.0038565,3.870051679,-99999.0,'11133222,11111222,99999999' 
TABS,ioos:station:wmo:42045:1,2009-01-01T06:30:00Z,26.2168,-96.4998,2.0,323.9288929,2.870278732,-99999.0,'11133222,11111222,99999999' 
TABS,ioos:station:wmo:42045:1,2009-01-01T07:00:00Z,26.2168,-96.4998,2.0,314.6258397,2.163792966,-99999.0,'11133222,11111222,99999999' 
TABS,ioos:station:wmo:42045:1,2009-01-01T07:30:00Z,26.2168,-96.4998,2.0,324.4626158,1.978534811,-99999.0,'11133222,11111222,99999999' 
TABS,ioos:station:wmo:42045:1,2009-01-01T08:00:00Z,26.2168,-96.4998,2.0,271.5978934,2.510975906,-99999.0,'11133222,11111222,99999999' 
TABS,ioos:station:wmo:42045:1,2009-01-01T08:30:00Z,26.2168,-96.4998,2.0,316.13849,3.203825838,-99999.0,'11133222,11111222,99999999' 
TABS,ioos:station:wmo:42045:1,2009-01-01T09:00:00Z,26.2168,-96.4998,2.0,352.8329885,1.683151805,-99999.0,'11133222,11111222,99999999' 
TABS,ioos:station:wmo:42045:1,2009-01-01T09:30:00Z,26.2168,-96.4998,2.0,248.4338099,2.258074401,-99999.0,'11133222,11111222,99999999' 
TABS,ioos:station:wmo:42045:1,2009-01-01T10:00:00Z,26.2168,-96.4998,2.0,256.3283039,1.142365966,-99999.0,'11133222,11111222,99999999' 
TABS,ioos:station:wmo:42045:1,2009-01-01T10:30:00Z,26.2168,-96.4998,2.0,14.10849106,1.928159744,-99999.0,'11133222,11111222,99999999' 
TABS,ioos:station:wmo:42045:1,2009-01-01T11:00:00Z,26.2168,-96.4998,2.0,70.00943587,6.523020773,-99999.0,'11133222,11111222,99999999' 
TABS,ioos:station:wmo:42045:1,2009-01-01T11:30:00Z,26.2168,-96.4998,2.0,40.82828158,9.039563043,-99999.0,'11133222,11111222,99999999' 
TABS,ioos:station:wmo:42045:1,2009-01-01T12:00:00Z,26.2168,-96.4998,2.0,51.17221327,11.18052772,-99999.0,'11111222,11111222,99999999' 
TABS,ioos:station:wmo:42045:1,2009-01-01T12:30:00Z,26.2168,-96.4998,2.0,65.17813501,9.409256081,-99999.0,'11133222,11111222,99999999' 
TABS,ioos:station:wmo:42045:1,2009-01-01T13:00:00Z,26.2168,-96.4998,2.0,87.29736707,8.058963953,-99999.0,'11133222,11111222,99999999' 
TABS,ioos:station:wmo:42045:1,2009-01-01T13:30:00Z,26.2168,-96.4998,2.0,72.83109033,11.45024017,-99999.0,'11111222,11111222,99999999' 
TABS,ioos:station:wmo:42045:1,2009-01-01T14:00:00Z,26.2168,-96.4998,2.0,88.12904778,9.495061874,-99999.0,'11133222,11111222,99999999' 
TABS,ioos:station:wmo:42045:1,2009-01-01T14:30:00Z,26.2168,-96.4998,2.0,111.8890167,9.710020597,-99999.0,'11133222,11111222,99999999' 
TABS,ioos:station:wmo:42045:1,2009-01-01T15:00:00Z,26.2168,-96.4998,2.0,96.00339088,10.70873008,-99999.0,'11111222,11111222,99999999' 
TABS,ioos:station:wmo:42045:1,2009-01-01T15:30:00Z,26.2168,-96.4998,2.0,112.9057161,7.707788269,-99999.0,'11133222,11111222,99999999' 
TABS,ioos:station:wmo:42045:1,2009-01-01T16:00:00Z,26.2168,-96.4998,2.0,117.5276623,11.44581146,-99999.0,'11111222,11111222,99999999' 
TABS,ioos:station:wmo:42045:1,2009-01-01T16:30:00Z,26.2168,-96.4998,2.0,133.1331858,13.67563161,-99999.0,'11111222,11111222,99999999' 
TABS,ioos:station:wmo:42045:1,2009-01-01T17:00:00Z,26.2168,-96.4998,2.0,141.8386675,16.15210203,-99999.0,'11111222,11111222,99999999' 
TABS,ioos:station:wmo:42045:1,2009-01-01T17:30:00Z,26.2168,-96.4998,2.0,132.7759387,16.03511771,-99999.0,'11111222,11111222,99999999' 
TABS,ioos:station:wmo:42045:1,2009-01-01T18:00:00Z,26.2168,-96.4998,2.0,136.1083793,16.08261795,-99999.0,'11111222,11111222,99999999' 
TABS,ioos:station:wmo:42045:1,2009-01-01T18:30:00Z,26.2168,-96.4998,2.0,145.5622614,19.55762,-99999.0,'11111222,11111222,99999999' 
TABS,ioos:station:wmo:42045:1,2009-01-01T19:00:00Z,26.2168,-96.4998,2.0,138.9683613,20.94522619,-99999.0,'11111222,11111222,99999999' 
TABS,ioos:station:wmo:42045:1,2009-01-01T19:30:00Z,26.2168,-96.4998,2.0,131.9078298,22.02308334,-99999.0,'11111222,11111222,99999999' 
TABS,ioos:station:wmo:42045:1,2009-01-01T20:00:00Z,26.2168,-96.4998,2.0,145.7037725,23.33754272,-99999.0,'11111222,11111222,99999999' 
TABS,ioos:station:wmo:42045:1,2009-01-01T20:30:00Z,26.2168,-96.4998,2.0,128.5734401,24.89100239,-99999.0,'11111222,11111222,99999999' 
TABS,ioos:station:wmo:42045:1,2009-01-01T21:00:00Z,26.2168,-96.4998,2.0,133.1220217,24.1677471,-99999.0,'11111222,11111222,99999999' 
TABS,ioos:station:wmo:42045:1,2009-01-01T21:30:00Z,26.2168,-96.4998,2.0,144.4024037,21.16521911,-99999.0,'11111222,11111222,99999999' 
TABS,ioos:station:wmo:42045:1,2009-01-01T22:00:00Z,26.2168,-96.4998,2.0,136.9026338,18.9538413,-99999.0,'11111222,11111222,99999999' 
TABS,ioos:station:wmo:42045:1,2009-01-01T22:30:00Z,26.2168,-96.4998,2.0,150.5403782,17.18150459,-99999.0,'11111222,11111222,99999999' 
TABS,ioos:station:wmo:42045:1,2009-01-01T23:00:00Z,26.2168,-96.4998,2.0,141.010054,18.16643333,-99999.0,'11111222,11111222,99999999' 
TABS,ioos:station:wmo:42045:1,2009-01-01T23:30:00Z,26.2168,-96.4998,2.0,149.3269965,18.91653774,-99999.0,'11111222,11111222,99999999' 
TABS,ioos:station:wmo:42045:1,2009-01-02T00:00:00Z,26.2168,-96.4998,2.0,179.0030313,12.07182671,-99999.0,'11111222,11111222,99999999' 
TABS,ioos:station:wmo:42045:1,2009-01-02T00:30:00Z,26.2168,-96.4998,2.0,169.6300061,15.77770579,-99999.0,'11111222,11111222,99999999' 
TABS,ioos:station:wmo:42045:1,2009-01-02T01:00:00Z,26.2168,-96.4998,2.0,161.5881464,15.57738104,-99999.0,'11111222,11111222,99999999' 
TABS,ioos:station:wmo:42045:1,2009-01-02T01:30:00Z,26.2168,-96.4998,2.0,173.701262,13.67253086,-99999.0,'11111222,11111222,99999999' 
TABS,ioos:station:wmo:42045:1,2009-01-02T02:00:00Z,26.2168,-96.4998,2.0,171.7801018,12.66005529,-99999.0,'11111222,11111222,99999999' 
TABS,ioos:station:wmo:42045:1,2009-01-02T02:30:00Z,26.2168,-96.4998,2.0,180.7583635,14.35125778,-99999.0,'11111222,11111222,99999999' 
TABS,ioos:station:wmo:42045:1,2009-01-02T03:00:00Z,26.2168,-96.4998,2.0,186.3704916,10.36400019,-99999.0,'11111222,11111222,99999999' 
TABS,ioos:station:wmo:42045:1,2009-01-02T03:30:00Z,26.2168,-96.4998,2.0,209.2580978,6.281345397,-99999.0,'11133222,11111222,99999999' 
TABS,ioos:station:wmo:42045:1,2009-01-02T04:00:00Z,26.2168,-96.4998,2.0,233.3655509,6.804057613,-99999.0,'11133222,11111222,99999999' 
TABS,ioos:station:wmo:42045:1,2009-01-02T04:30:00Z,26.2168,-96.4998,2.0,278.1806317,6.465786882,-99999.0,'11133222,11111222,99999999' 
TABS,ioos:station:wmo:42045:1,2009-01-02T05:00:00Z,26.2168,-96.4998,2.0,268.9353861,6.461114455,-99999.0,'11133222,11111222,99999999' 
TABS,ioos:station:wmo:42045:1,2009-01-02T05:30:00Z,26.2168,-96.4998,2.0,280.8188824,5.487531321,-99999.0,'11133222,11111222,99999999' 
TABS,ioos:station:wmo:42045:1,2009-01-02T06:00:00Z,26.2168,-96.4998,2.0,287.3037553,9.447565824,-99999.0,'11133222,11111222,99999999' 
TABS,ioos:station:wmo:42045:1,2009-01-02T06:30:00Z,26.2168,-96.4998,2.0,292.4443001,9.770046059,-99999.0,'11133222,11111222,99999999' 
TABS,ioos:station:wmo:42045:1,2009-01-02T07:00:00Z,26.2168,-96.4998,2.0,326.0077731,8.406598599,-99999.0,'11133222,11111222,99999999' 
TABS,ioos:station:wmo:42045:1,2009-01-02T07:30:00Z,26.2168,-96.4998,2.0,309.3503064,9.983351141,-99999.0,'11133222,11111222,99999999' 
TABS,ioos:station:wmo:42045:1,2009-01-02T08:00:00Z,26.2168,-96.4998,2.0,320.7108955,8.243348834,-99999.0,'11133222,11111222,99999999' 
TABS,ioos:station:wmo:42045:1,2009-01-02T08:30:00Z,26.2168,-96.4998,2.0,326.4214753,11.42684558,-99999.0,'11111222,11111222,99999999' 
TABS,ioos:station:wmo:42045:1,2009-01-02T09:00:00Z,26.2168,-96.4998,2.0,325.9230949,13.95657551,-99999.0,'11111222,11111222,99999999' 
TABS,ioos:station:wmo:42045:1,2009-01-02T09:30:00Z,26.2168,-96.4998,2.0,337.6495857,13.75322871,-99999.0,'11111222,11111222,99999999' 
TABS,ioos:station:wmo:42045:1,2009-01-02T10:00:00Z,26.2168,-96.4998,2.0,347.0505507,18.16190794,-99999.0,'11111222,11111222,99999999' 
TABS,ioos:station:wmo:42045:1,2009-01-02T10:30:00Z,26.2168,-96.4998,2.0,352.3252462,16.02354518,-99999.0,'11111222,11111222,99999999' 
TABS,ioos:station:wmo:42045:1,2009-01-02T11:00:00Z,26.2168,-96.4998,2.0,344.2454688,15.68941044,-99999.0,'11111222,11111222,99999999' 
TABS,ioos:station:wmo:42045:1,2009-01-02T11:30:00Z,26.2168,-96.4998,2.0,353.8013876,16.11421733,-99999.0,'11111222,11111222,99999999' 
TABS,ioos:station:wmo:42045:1,2009-01-02T12:00:00Z,26.2168,-96.4998,2.0,6.079970202,18.22249434,-99999.0,'11111222,11111222,99999999' 
TABS,ioos:station:wmo:42045:1,2009-01-02T12:30:00Z,26.2168,-96.4998,2.0,6.365831107,17.40732317,-99999.0,'11111222,11111222,99999999' 
TABS,ioos:station:wmo:42045:1,2009-01-02T13:00:00Z,26.2168,-96.4998,2.0,13.0558696,18.28258734,-99999.0,'11111222,11111222,99999999' 
TABS,ioos:station:wmo:42045:1,2009-01-02T13:30:00Z,26.2168,-96.4998,2.0,21.59740653,17.19735445,-99999.0,'11111222,11111222,99999999' 
TABS,ioos:station:wmo:42045:1,2009-01-02T14:00:00Z,26.2168,-96.4998,2.0,20.18229164,17.21711939,-99999.0,'11111222,11111222,99999999' 
TABS,ioos:station:wmo:42045:1,2009-01-02T14:30:00Z,26.2168,-96.4998,2.0,31.22393355,19.27149449,-99999.0,'11111222,11111222,99999999' 
TABS,ioos:station:wmo:42045:1,2009-01-02T15:00:00Z,26.2168,-96.4998,2.0,35.7317176,17.51745701,-99999.0,'11111222,11111222,99999999' 
TABS,ioos:station:wmo:42045:1,2009-01-02T15:30:00Z,26.2168,-96.4998,2.0,39.55851711,15.13666079,-99999.0,'11111222,11111222,99999999' 
TABS,ioos:station:wmo:42045:1,2009-01-02T16:00:00Z,26.2168,-96.4998,2.0,43.98144221,19.88698569,-99999.0,'11111222,11111222,99999999' 
TABS,ioos:station:wmo:42045:1,2009-01-02T16:30:00Z,26.2168,-96.4998,2.0,42.26379264,19.25525902,-99999.0,'11111222,11111222,99999999' 
TABS,ioos:station:wmo:42045:1,2009-01-02T17:00:00Z,26.2168,-96.4998,2.0,48.75301289,16.744841,-99999.0,'11111222,11111222,99999999' 
TABS,ioos:station:wmo:42045:1,2009-01-02T17:30:00Z,26.2168,-96.4998,2.0,50.25685065,18.83167544,-99999.0,'11111222,11111222,99999999' 
TABS,ioos:station:wmo:42045:1,2009-01-02T18:00:00Z,26.2168,-96.4998,2.0,50.73177285,21.02842124,-99999.0,'11111222,11111222,99999999' 
TABS,ioos:station:wmo:42045:1,2009-01-02T18:30:00Z,26.2168,-96.4998,2.0,53.82183761,15.07709853,-99999.0,'11111222,11111222,99999999' 
TABS,ioos:station:wmo:42045:1,2009-01-02T19:00:00Z,26.2168,-96.4998,2.0,49.46094306,17.00084998,-99999.0,'11111222,11111222,99999999' 
TABS,ioos:station:wmo:42045:1,2009-01-02T19:30:00Z,26.2168,-96.4998,2.0,54.60602312,16.69553833,-99999.0,'11111222,11111222,99999999' 
TABS,ioos:station:wmo:42045:1,2009-01-02T20:00:00Z,26.2168,-96.4998,2.0,57.64845105,15.43597098,-99999.0,'11111222,11111222,99999999' 
TABS,ioos:station:wmo:42045:1,2009-01-02T20:30:00Z,26.2168,-96.4998,2.0,54.57907623,13.13019802,-99999.0,'11111222,11111222,99999999' 
TABS,ioos:station:wmo:42045:1,2009-01-02T21:00:00Z,26.2168,-96.4998,2.0,59.45578841,14.75784876,-99999.0,'11111222,11111222,99999999' 
TABS,ioos:station:wmo:42045:1,2009-01-02T21:30:00Z,26.2168,-96.4998,2.0,57.57814902,15.1636704,-99999.0,'11111222,11111222,99999999' 
TABS,ioos:station:wmo:42045:1,2009-01-02T22:00:00Z,26.2168,-96.4998,2.0,66.40310421,14.16436726,-99999.0,'11111222,11111222,99999999' 
TABS,ioos:station:wmo:42045:1,2009-01-02T22:30:00Z,26.2168,-96.4998,2.0,69.73504006,11.98165681,-99999.0,'11111222,11111222,99999999' 
TABS,ioos:station:wmo:42045:1,2009-01-02T23:00:00Z,26.2168,-96.4998,2.0,44.69173552,13.13823428,-99999.0,'11111222,11111222,99999999' 
TABS,ioos:station:wmo:42045:1,2009-01-02T23:30:00Z,26.2168,-96.4998,2.0,53.66068865,9.720416658,-99999.0,'11133222,11111222,99999999' 
TABS,ioos:station:wmo:42045:1,2009-01-03T00:00:00Z,26.2168,-96.4998,2.0,51.23780085,10.47771445,-99999.0,'11111222,11111222,99999999' 
TABS,ioos:station:wmo:42045:1,2009-01-03T00:30:00Z,26.2168,-96.4998,2.0,41.20525798,11.21809699,-99999.0,'11111222,11111222,99999999' 
TABS,ioos:station:wmo:42045:1,2009-01-03T01:00:00Z,26.2168,-96.4998,2.0,34.9165242,11.79285377,-99999.0,'11111222,11111222,99999999' 
TABS,ioos:station:wmo:42045:1,2009-01-03T01:30:00Z,26.2168,-96.4998,2.0,49.65224911,11.76967714,-99999.0,'11111222,11111222,99999999' 
TABS,ioos:station:wmo:42045:1,2009-01-03T02:00:00Z,26.2168,-96.4998,2.0,34.84062199,10.22241165,-99999.0,'11111222,11111222,99999999' 
TABS,ioos:station:wmo:42045:1,2009-01-03T02:30:00Z,26.2168,-96.4998,2.0,49.37200159,4.637973695,-99999.0,'11133222,11111222,99999999' 
TABS,ioos:station:wmo:42045:1,2009-01-03T03:00:00Z,26.2168,-96.4998,2.0,28.01103219,12.58412492,-99999.0,'11111222,11111222,99999999' 
TABS,ioos:station:wmo:42045:1,2009-01-03T03:30:00Z,26.2168,-96.4998,2.0,356.2001773,8.147913843,-99999.0,'11133222,11111222,99999999' 
TABS,ioos:station:wmo:42045:1,2009-01-03T04:00:00Z,26.2168,-96.4998,2.0,6.340387378,11.40978527,-99999.0,'11111222,11111222,99999999' 
TABS,ioos:station:wmo:42045:1,2009-01-03T04:30:00Z,26.2168,-96.4998,2.0,8.226913685,11.74081769,-99999.0,'11111222,11111222,99999999' 
TABS,ioos:station:wmo:42045:1,2009-01-03T05:00:00Z,26.2168,-96.4998,2.0,349.1216311,9.378539332,-99999.0,'11133222,11111222,99999999' 
TABS,ioos:station:wmo:42045:1,2009-01-03T05:30:00Z,26.2168,-96.4998,2.0,8.370789802,14.15074556,-99999.0,'11111222,11111222,99999999' 
TABS,ioos:station:wmo:42045:1,2009-01-03T06:00:00Z,26.2168,-96.4998,2.0,0.000210459,12.81,-99999.0,'11111222,11111222,99999999' 
TABS,ioos:station:wmo:42045:1,2009-01-03T06:30:00Z,26.2168,-96.4998,2.0,1.600701782,13.60530779,-99999.0,'11111222,11111222,99999999' 
TABS,ioos:station:wmo:42045:1,2009-01-03T07:00:00Z,26.2168,-96.4998,2.0,356.2264589,17.01689748,-99999.0,'11111222,11111222,99999999' 
TABS,ioos:station:wmo:42045:1,2009-01-03T07:30:00Z,26.2168,-96.4998,2.0,359.0124524,20.88310322,-99999.0,'11111222,11144222,99999999' 
TABS,ioos:station:wmo:42045:1,2009-01-03T08:00:00Z,26.2168,-96.4998,2.0,8.235810524,16.89422386,-99999.0,'11111222,11111222,99999999' 
TABS,ioos:station:wmo:42045:1,2009-01-03T08:30:00Z,26.2168,-96.4998,2.0,6.96056794,16.83406368,-99999.0,'11111222,11111222,99999999' 
TABS,ioos:station:wmo:42045:1,2009-01-03T09:00:00Z,26.2168,-96.4998,2.0,6.291099401,19.25595233,-99999.0,'11111222,11111222,99999999' 
TABS,ioos:station:wmo:42045:1,2009-01-03T09:30:00Z,26.2168,-96.4998,2.0,14.36176121,15.80387611,-99999.0,'11111222,11111222,99999999' 
TABS,ioos:station:wmo:42045:1,2009-01-03T10:00:00Z,26.2168,-96.4998,2.0,15.9554027,16.00662675,-99999.0,'11111222,11111222,99999999' 
TABS,ioos:station:wmo:42045:1,2009-01-03T10:30:00Z,26.2168,-96.4998,2.0,14.96006533,16.85113943,-99999.0,'11111222,11111222,99999999' 
TABS,ioos:station:wmo:42045:1,2009-01-03T11:00:00Z,26.2168,-96.4998,2.0,23.15592778,19.32699925,-99999.0,'11111222,11111222,99999999' 
TABS,ioos:station:wmo:42045:1,2009-01-03T11:30:00Z,26.2168,-96.4998,2.0,20.52691964,16.02761679,-99999.0,'11111222,11111222,99999999' 
TABS,ioos:station:wmo:42045:1,2009-01-03T12:00:00Z,26.2168,-96.4998,2.0,28.93409765,17.52786353,-99999.0,'11111222,11111222,99999999' 
TABS,ioos:station:wmo:42045:1,2009-01-03T12:30:00Z,26.2168,-96.4998,2.0,20.6956128,14.9122567,-99999.0,'11111222,11111222,99999999' 
TABS,ioos:station:wmo:42045:1,2009-01-03T13:00:00Z,26.2168,-96.4998,2.0,31.87124474,15.37849147,-99999.0,'11111222,11111222,99999999' 
TABS,ioos:station:wmo:42045:1,2009-01-03T13:30:00Z,26.2168,-96.4998,2.0,15.72204228,13.02737502,-99999.0,'11111222,11111222,99999999' 
TABS,ioos:station:wmo:42045:1,2009-01-03T14:00:00Z,26.2168,-96.4998,2.0,8.821214621,15.12894246,-99999.0,'11111222,11111222,99999999' 
TABS,ioos:station:wmo:42045:1,2009-01-03T14:30:00Z,26.2168,-96.4998,2.0,18.62289312,15.43832245,-99999.0,'11111222,11111222,99999999' 
TABS,ioos:station:wmo:42045:1,2009-01-03T15:00:00Z,26.2168,-96.4998,2.0,14.44579318,15.95440065,-99999.0,'11111222,11111222,99999999' 
TABS,ioos:station:wmo:42045:1,2009-01-03T15:30:00Z,26.2168,-96.4998,2.0,12.32177225,20.99358235,-99999.0,'11111222,11111222,99999999' 
TABS,ioos:station:wmo:42045:1,2009-01-03T16:00:00Z,26.2168,-96.4998,2.0,17.50369458,22.17682123,-99999.0,'11111222,11111222,99999999' 
TABS,ioos:station:wmo:42045:1,2009-01-03T16:30:00Z,26.2168,-96.4998,2.0,351.1332061,19.4626026,-99999.0,'11111222,11111222,99999999' 
TABS,ioos:station:wmo:42045:1,2009-01-03T17:00:00Z,26.2168,-96.4998,2.0,8.669108439,24.81347416,-99999.0,'11111222,11111222,99999999' 
TABS,ioos:station:wmo:42045:1,2009-01-03T17:30:00Z,26.2168,-96.4998,2.0,4.191747331,23.12184465,-99999.0,'11111222,11111222,99999999' 
TABS,ioos:station:wmo:42045:1,2009-01-03T18:00:00Z,26.2168,-96.4998,2.0,4.12151977,26.29800373,-99999.0,'11111222,11111222,99999999' 
TABS,ioos:station:wmo:42045:1,2009-01-03T18:30:00Z,26.2168,-96.4998,2.0,5.082546679,27.76917716,-99999.0,'11111222,11111222,99999999' 
TABS,ioos:station:wmo:42045:1,2009-01-03T19:00:00Z,26.2168,-96.4998,2.0,1.771246727,27.503138,-99999.0,'11111222,11111222,99999999' 
TABS,ioos:station:wmo:42045:1,2009-01-03T19:30:00Z,26.2168,-96.4998,2.0,1.473795186,27.60913074,-99999.0,'11111222,11111222,99999999' 
TABS,ioos:station:wmo:42045:1,2009-01-03T20:00:00Z,26.2168,-96.4998,2.0,7.160643441,32.09027267,-99999.0,'11111222,11111222,99999999' 
TABS,ioos:station:wmo:42045:1,2009-01-03T20:30:00Z,26.2168,-96.4998,2.0,6.971103103,28.59135009,-99999.0,'11111222,11111222,99999999' 
TABS,ioos:station:wmo:42045:1,2009-01-03T21:00:00Z,26.2168,-96.4998,2.0,7.34802052,32.21454485,-99999.0,'11111222,11111222,99999999' 
TABS,ioos:station:wmo:42045:1,2009-01-03T21:30:00Z,26.2168,-96.4998,2.0,16.89579659,32.13717629,-99999.0,'11111222,11111222,99999999' 
TABS,ioos:station:wmo:42045:1,2009-01-03T22:00:00Z,26.2168,-96.4998,2.0,20.37459513,30.64737835,-99999.0,'11111222,11111222,99999999' 
TABS,ioos:station:wmo:42045:1,2009-01-03T22:30:00Z,26.2168,-96.4998,2.0,24.71386363,33.2229514,-99999.0,'11111222,11111222,99999999' 
TABS,ioos:station:wmo:42045:1,2009-01-03T23:00:00Z,26.2168,-96.4998,2.0,27.72304463,35.18947854,-99999.0,'11111222,11111222,99999999' 
TABS,ioos:station:wmo:42045:1,2009-01-03T23:30:00Z,26.2168,-96.4998,2.0,27.42888754,28.4817977,-99999.0,'11111222,11111222,99999999' 
TABS,ioos:station:wmo:42045:1,2009-01-04T00:00:00Z,26.2168,-96.4998,2.0,28.44774519,26.95469532,-99999.0,'11111222,11111222,99999999' 
TABS,ioos:station:wmo:42045:1,2009-01-04T00:30:00Z,26.2168,-96.4998,2.0,22.26353048,28.55901434,-99999.0,'11111222,11111222,99999999' 
TABS,ioos:station:wmo:42045:1,2009-01-04T01:00:00Z,26.2168,-96.4998,2.0,31.3828316,29.5534262,-99999.0,'11111222,11111222,99999999' 
TABS,ioos:station:wmo:42045:1,2009-01-04T01:30:00Z,26.2168,-96.4998,2.0,37.44664297,28.61744922,-99999.0,'11111222,11111222,99999999' 
TABS,ioos:station:wmo:42045:1,2009-01-04T02:00:00Z,26.2168,-96.4998,2.0,38.10769822,29.16680476,-99999.0,'11111222,11111222,99999999' 
TABS,ioos:station:wmo:42045:1,2009-01-04T02:30:00Z,26.2168,-96.4998,2.0,39.70167394,26.80072387,-99999.0,'11111222,11111222,99999999' 
TABS,ioos:station:wmo:42045:1,2009-01-04T03:00:00Z,26.2168,-96.4998,2.0,45.76354955,23.88111597,-99999.0,'11111222,11111222,99999999' 
TABS,ioos:station:wmo:42045:1,2009-01-04T03:30:00Z,26.2168,-96.4998,2.0,36.87497954,23.11400009,-99999.0,'11111222,11111222,99999999' 
TABS,ioos:station:wmo:42045:1,2009-01-04T04:00:00Z,26.2168,-96.4998,2.0,35.82715925,21.86762218,-99999.0,'11111222,11111222,99999999' 
TABS,ioos:station:wmo:42045:1,2009-01-04T04:30:00Z,26.2168,-96.4998,2.0,47.99376976,24.50640937,-99999.0,'11111222,11111222,99999999' 
TABS,ioos:station:wmo:42045:1,2009-01-04T05:00:00Z,26.2168,-96.4998,2.0,45.24244186,23.40544381,-99999.0,'11111222,11111222,99999999' 
TABS,ioos:station:wmo:42045:1,2009-01-04T05:30:00Z,26.2168,-96.4998,2.0,47.71227761,21.81747006,-99999.0,'11111222,11111222,99999999' 
TABS,ioos:station:wmo:42045:1,2009-01-04T06:00:00Z,26.2168,-96.4998,2.0,49.70618975,21.63261658,-99999.0,'11111222,11111222,99999999' 
TABS,ioos:station:wmo:42045:1,2009-01-04T06:30:00Z,26.2168,-96.4998,2.0,53.0764907,21.34000937,-99999.0,'11111222,11111222,99999999' 
TABS,ioos:station:wmo:42045:1,2009-01-04T07:00:00Z,26.2168,-96.4998,2.0,41.57582188,16.45547022,-99999.0,'11111222,11111222,99999999' 
TABS,ioos:station:wmo:42045:1,2009-01-04T07:30:00Z,26.2168,-96.4998,2.0,53.00750001,14.01003212,-99999.0,'11111222,11111222,99999999' 
TABS,ioos:station:wmo:42045:1,2009-01-04T08:00:00Z,26.2168,-96.4998,2.0,41.37063351,16.64331998,-99999.0,'11111222,11111222,99999999' 
TABS,ioos:station:wmo:42045:1,2009-01-04T08:30:00Z,26.2168,-96.4998,2.0,42.64094461,15.11661338,-99999.0,'11111222,11111222,99999999' 
TABS,ioos:station:wmo:42045:1,2009-01-04T09:00:00Z,26.2168,-96.4998,2.0,41.10673454,12.91328773,-99999.0,'11111222,11111222,99999999' 
TABS,ioos:station:wmo:42045:1,2009-01-04T09:30:00Z,26.2168,-96.4998,2.0,39.22452277,14.2640422,-99999.0,'11111222,11111222,99999999' 
TABS,ioos:station:wmo:42045:1,2009-01-04T10:00:00Z,26.2168,-96.4998,2.0,23.01542795,18.05735307,-99999.0,'11111222,11111222,99999999' 
TABS,ioos:station:wmo:42045:1,2009-01-04T10:30:00Z,26.2168,-96.4998,2.0,22.6370427,15.53692376,-99999.0,'11111222,11111222,99999999' 
TABS,ioos:station:wmo:42045:1,2009-01-04T11:00:00Z,26.2168,-96.4998,2.0,24.83498258,12.73797865,-99999.0,'11111222,11111222,99999999' 
TABS,ioos:station:wmo:42045:1,2009-01-04T11:30:00Z,26.2168,-96.4998,2.0,28.9329851,16.45361966,-99999.0,'11111222,11111222,99999999' 
TABS,ioos:station:wmo:42045:1,2009-01-04T12:00:00Z,26.2168,-96.4998,2.0,26.13054013,15.91678988,-99999.0,'11111222,11111222,99999999' 
TABS,ioos:station:wmo:42045:1,2009-01-04T12:30:00Z,26.2168,-96.4998,2.0,33.03256977,14.01542365,-99999.0,'11111222,11111222,99999999' 
TABS,ioos:station:wmo:42045:1,2009-01-04T13:00:00Z,26.2168,-96.4998,2.0,38.44963872,15.74398298,-99999.0,'11111222,11111222,99999999' 
TABS,ioos:station:wmo:42045:1,2009-01-04T13:30:00Z,26.2168,-96.4998,2.0,21.37078275,17.04174287,-99999.0,'11111222,11111222,99999999' 
TABS,ioos:station:wmo:42045:1,2009-01-04T14:00:00Z,26.2168,-96.4998,2.0,34.57759043,17.55004558,-99999.0,'11111222,11111222,99999999' 
TABS,ioos:station:wmo:42045:1,2009-01-04T14:30:00Z,26.2168,-96.4998,2.0,27.71766846,17.56563122,-99999.0,'11111222,11111222,99999999' 
TABS,ioos:station:wmo:42045:1,2009-01-04T15:00:00Z,26.2168,-96.4998,2.0,15.97776539,17.11100815,-99999.0,'11111222,11111222,99999999' 
TABS,ioos:station:wmo:42045:1,2009-01-04T15:30:00Z,26.2168,-96.4998,2.0,30.04910582,17.29440661,-99999.0,'11111222,11111222,99999999' 
TABS,ioos:station:wmo:42045:1,2009-01-04T16:00:00Z,26.2168,-96.4998,2.0,26.82936814,17.45940434,-99999.0,'11111222,11111222,99999999' 